Location: Caltech
(34.1382°N, 118.1253°W)
Time: 22:53:27
(UTC-07:00)

OPAL - Visible Passes

Search period start: 25 October 2014 00:00
Search period end: 03 November 2014 23:00
Orbit: 744 x 797 km, 100.2° (Epoch: 25 October)

Date Brightness Start Highest point End Pass type
(mag) Time Alt. Az. Time Alt. Az. Time Alt. Az.
25 Oct 8.6 04:47:04 10° SE 04:51:54 43° ENE 04:56:43 10° N visible
25 Oct 8.8 06:27:19 10° SW 06:30:53 19° W 06:34:27 10° NW visible
25 Oct 8.4 18:39:18 10° N 18:44:05 50° WNW 18:48:51 10° SW visible
26 Oct 9.9 04:13:22 10° ESE 04:16:57 20° ENE 04:20:32 10° NNE visible
26 Oct 7.8 05:50:35 10° S 05:55:29 43° WSW 06:00:21 10° NNW visible
26 Oct 10.4 19:45:20 10° NW 19:47:11 12° WNW 19:49:01 10° W visible
27 Oct 7.5 05:15:05 10° SSE 05:20:14 80° ENE 05:25:21 10° NNW visible
27 Oct 9.6 19:08:12 10° N 19:12:20 27° WNW 19:16:27 10° SW visible
28 Oct 9.0 04:40:32 10° SE 04:45:09 35° ENE 04:49:44 10° N visible
28 Oct 8.6 06:19:59 10° SSW 06:24:01 23° W 06:28:03 10° NW visible
28 Oct 8.0 18:32:24 10° N 18:37:17 64° WNW 18:42:10 10° SSW visible
29 Oct 10.2 04:07:15 10° E 04:10:15 16° ENE 04:13:14 10° NNE visible
29 Oct 7.6 05:43:38 10° S 05:48:39 54° WSW 05:53:38 10° NNW visible
29 Oct 10.2 19:37:44 10° NNW 19:40:28 15° WNW 19:43:12 10° W visible
30 Oct 7.8 05:08:22 10° SSE 05:13:27 65° ENE 05:18:28 10° N visible
30 Oct 9.2 19:01:09 10° N 19:05:34 33° WNW 19:09:58 10° SW visible
31 Oct 9.3 04:34:05 10° SE 04:38:24 28° ENE 04:42:41 10° N visible
31 Oct 8.3 06:12:46 10° SSW 06:17:09 29° W 06:21:31 10° NW visible
31 Oct 7.6 18:25:31 10° NNE 18:30:28 80° WNW 18:35:25 10° SSW visible
01 Nov 10.4 04:01:23 10° E 04:03:32 13° ENE 04:05:41 10° NE visible
01 Nov 7.4 05:36:44 10° S 05:41:49 68° WSW 05:46:52 10° NNW visible
01 Nov 10.1 19:30:23 10° NNW 19:33:44 19° WNW 19:37:04 10° WSW visible
02 Nov 8.2 04:01:42 10° SSE 04:06:39 52° ENE 04:11:33 10° N visible
02 Nov 9.1 05:42:52 10° SW 05:45:44 15° W 05:48:36 10° WNW visible
02 Nov 8.8 17:54:08 10° N 17:58:46 41° WNW 18:03:24 10° SW visible
03 Nov 9.6 03:27:43 10° ESE 03:31:39 23° ENE 03:35:33 10° NNE visible
03 Nov 8.1 05:05:38 10° SSW 05:10:17 35° W 05:14:54 10° NW visible
03 Nov 7.5 17:18:40 10° NNE 17:23:38 83° ESE 17:28:36 10° SSW visible
